TimeEEST,TemperatureF,Dew PointF,Humidity,Sea Level PressureIn,VisibilityMPH,Wind Direction,Wind SpeedMPH,Gust SpeedMPH,PrecipitationIn,Events,Conditions,WindDirDegrees,DateUTC
12:20 AM,59.0,53.6,82,30.15,-9999.0,ESE,5.8,-,N/A,,Clear,110,2012-10-19 21:20:00
12:50 AM,59.0,53.6,82,30.15,-9999.0,ESE,5.8,-,N/A,,Clear,110,2012-10-19 21:50:00
1:20 AM,59.0,53.6,82,30.12,-9999.0,ESE,5.8,-,N/A,,Clear,110,2012-10-19 22:20:00
1:50 AM,59.0,53.6,82,30.12,-9999.0,ESE,5.8,-,N/A,,Clear,110,2012-10-19 22:50:00
2:20 AM,59.0,53.6,82,30.12,-9999.0,ESE,6.9,-,N/A,,Clear,110,2012-10-19 23:20:00
3:00 AM,59,54,77,30.14,6,ESE,5.8,,,,Clear,110,2012-10-20 00:00:00
3:20 AM,57.2,53.6,88,30.12,-9999.0,ESE,6.9,-,N/A,,Clear,110,2012-10-20 00:20:00
3:50 AM,57.2,53.6,88,30.12,-9999.0,ESE,6.9,-,N/A,,Clear,110,2012-10-20 00:50:00
4:20 AM,57.2,53.6,88,30.12,-9999.0,ESE,5.8,-,N/A,,Clear,110,2012-10-20 01:20:00
4:50 AM,55.4,51.8,88,30.12,-9999.0,Variable,3.5,-,N/A,,Clear,0,2012-10-20 01:50:00
5:20 AM,57.2,51.8,82,30.12,-9999.0,Variable,2.3,-,N/A,,Clear,0,2012-10-20 02:20:00
5:50 AM,57.2,53.6,88,30.12,-9999.0,Variable,2.3,-,N/A,,Clear,0,2012-10-20 02:50:00
6:20 AM,55.4,51.8,88,30.12,-9999.0,Variable,3.5,-,N/A,,Clear,0,2012-10-20 03:20:00
6:50 AM,55.4,51.8,88,30.12,-9999.0,Variable,1.2,-,N/A,,Clear,0,2012-10-20 03:50:00
7:20 AM,55.4,51.8,88,30.12,6.2,Calm,Calm,-,N/A,,Partly Cloudy,0,2012-10-20 04:20:00
7:50 AM,53.6,50.0,88,30.12,5.0,ESE,4.6,-,N/A,,Partly Cloudy,120,2012-10-20 04:50:00
8:20 AM,55.4,51.8,88,30.12,5.0,ESE,5.8,-,N/A,,Partly Cloudy,110,2012-10-20 05:20:00
8:50 AM,57.2,53.6,88,30.12,5.0,Variable,3.5,-,N/A,,Partly Cloudy,0,2012-10-20 05:50:00
9:00 AM,58,54,80,30.14,5,,3.5,,,,Mist,,2012-10-20 06:00:00
9:20 AM,60.8,55.4,82,30.12,5.0,Calm,Calm,-,N/A,,Partly Cloudy,0,2012-10-20 06:20:00
9:50 AM,66.2,57.2,73,30.15,5.0,Calm,Calm,-,N/A,,Scattered Clouds,0,2012-10-20 06:50:00
10:20 AM,66.2,59.0,78,30.15,5.0,West,4.6,-,N/A,,Scattered Clouds,270,2012-10-20 07:20:00
10:50 AM,66.2,59.0,78,30.12,5.0,Variable,3.5,-,N/A,,Scattered Clouds,0,2012-10-20 07:50:00
11:20 AM,66.2,59.0,78,30.12,5.0,Variable,3.5,-,N/A,,Scattered Clouds,0,2012-10-20 08:20:00
11:50 AM,68.0,59.0,73,30.12,4.3,Variable,3.5,-,N/A,,Scattered Clouds,0,2012-10-20 08:50:00
12:20 PM,68.0,59.0,73,30.12,4.3,West,4.6,-,N/A,,Scattered Clouds,280,2012-10-20 09:20:00
12:50 PM,69.8,59.0,68,30.09,5.0,West,5.8,-,N/A,,Partly Cloudy,270,2012-10-20 09:50:00
1:20 PM,71.6,59.0,64,30.09,5.0,WNW,5.8,-,N/A,,Partly Cloudy,290,2012-10-20 10:20:00
1:50 PM,71.6,60.8,69,30.06,5.0,WNW,5.8,-,N/A,,Partly Cloudy,290,2012-10-20 10:50:00
2:20 PM,73.4,59.0,61,30.06,5.0,WNW,5.8,-,N/A,,Partly Cloudy,290,2012-10-20 11:20:00
2:50 PM,75.2,57.2,53,30.04,5.6,West,5.8,-,N/A,,Partly Cloudy,280,2012-10-20 11:50:00
3:00 PM,74,57,46,30.06,6,West,5.8,,,,Mist,280,2012-10-20 12:00:00
3:20 PM,75.2,57.2,53,30.04,-9999.0,West,5.8,-,N/A,,Clear,280,2012-10-20 12:20:00
3:50 PM,77.0,53.6,44,30.04,-9999.0,WNW,4.6,-,N/A,,Clear,290,2012-10-20 12:50:00
4:20 PM,78.8,53.6,42,30.04,-9999.0,WNW,4.6,-,N/A,,Clear,290,2012-10-20 13:20:00
4:50 PM,77.0,57.2,50,30.04,-9999.0,West,5.8,-,N/A,,Clear,270,2012-10-20 13:50:00
5:20 PM,75.2,57.2,53,30.01,-9999.0,South,9.2,-,N/A,,Clear,180,2012-10-20 14:20:00
5:50 PM,73.4,59.0,61,30.01,-9999.0,South,10.4,-,N/A,,Clear,180,2012-10-20 14:50:00
6:20 PM,73.4,59.0,61,30.04,-9999.0,South,10.4,-,N/A,,Clear,180,2012-10-20 15:20:00
6:50 PM,71.6,59.0,64,30.04,-9999.0,South,9.2,-,N/A,,Clear,190,2012-10-20 15:50:00
7:20 PM,69.8,59.0,68,30.04,-9999.0,South,8.1,-,N/A,,Clear,190,2012-10-20 16:20:00
7:50 PM,68.0,59.0,73,30.04,-9999.0,SE,5.8,-,N/A,,Clear,140,2012-10-20 16:50:00
8:20 PM,68.0,59.0,73,30.04,-9999.0,SE,4.6,-,N/A,,Clear,130,2012-10-20 17:20:00
8:50 PM,66.2,59.0,78,30.04,-9999.0,ESE,4.6,-,N/A,,Clear,120,2012-10-20 17:50:00
9:00 PM,67,58,67,30.06,6,ESE,4.6,,,,,120,2012-10-20 18:00:00
9:20 PM,64.4,57.2,77,30.06,-9999.0,Variable,3.5,-,N/A,,Clear,0,2012-10-20 18:20:00
9:50 PM,64.4,57.2,77,30.06,-9999.0,ESE,4.6,-,N/A,,Clear,110,2012-10-20 18:50:00
10:20 PM,62.6,57.2,82,30.06,-9999.0,East,4.6,-,N/A,,Clear,100,2012-10-20 19:20:00
10:50 PM,62.6,57.2,82,30.06,-9999.0,ESE,4.6,-,N/A,,Clear,120,2012-10-20 19:50:00
11:20 PM,62.6,57.2,82,30.09,-9999.0,ESE,4.6,-,N/A,,Clear,120,2012-10-20 20:20:00
11:50 PM,62.6,57.2,82,30.09,6.2,Variable,3.5,-,N/A,,Partly Cloudy,0,2012-10-20 20:50:00